DH8TOM-2 Weather Reports


time (UTC)temp
C
wind
direction
speed
KPH
gust
KPH
rain 1hr
cm
rain 24hr
cm
rain mn
cm
humidity
%
barometer
mb
20260507034022 8 177 1.6 6.4 0.03 1.12 0.15 96 1008.5
20260507033521 8 171 1.6 6.4 0.03 1.09 0.13 95 1008.4
20260507033019 8 171 1.6 6.4 0.03 1.09 0.13 95 1008.4
20260507032518 8 166 1.6 4.8 0.03 1.09 0.13 95 1008.3
20260507032018 8 166 1.6 4.8 0.03 1.09 0.13 95 1008.3
20260507031517 8 178 3.2 6.4 0.00 1.09 0.10 95 1008.2
20260507031016 8 178 3.2 6.4 0.03 1.09 0.10 95 1008.2
20260507030515 8 175 1.6 6.4 0.03 1.09 0.10 95 1008.2
20260507025512 8 172 1.6 4.8 0.03 1.09 0.10 96 1008.3
20260507024510 8 170 1.6 6.4 0.03 1.09 0.10 96 1008.2
20260507023508 8 170 1.6 6.4 0.05 1.09 0.10 96 1008.2
20260507022507 8 167 1.6 4.8 0.03 1.07 0.10 96 1008.2
20260507021507 8 165 1.6 6.4 0.05 1.07 0.10 96 1008.1
20260507020503 8 151 1.6 6.4 0.03 1.04 0.08 96 1007.9
20260507015501 8 168 1.6 6.4 0.03 1.04 0.08 95 1007.9
20260507015000 8 167 1.6 6.4 0.03 1.04 0.08 95 1007.8
20260507014459 8 167 1.6 6.4 0.03 1.04 0.08 95 1007.8
20260507013958 8 174 1.6 3.2 0.00 1.04 0.08 95 1007.7
20260507013456 8 174 1.6 3.2 0.00 1.04 0.08 95 1007.7
20260507012955 8 214 1.6 4.8 0.00 1.04 0.08 96 1007.6
20260507012454 8 214 1.6 4.8 0.00 1.04 0.08 96 1007.6
20260507011953 8 197 1.6 4.8 0.00 1.04 0.05 96 1007.6
20260507011452 8 197 1.6 4.8 0.00 1.04 0.05 96 1007.6
20260507010951 8 192 1.6 6.4 0.00 1.04 0.05 96 1007.6
20260507010451 8 192 1.6 6.4 0.00 1.04 0.05 96 1007.6
20260507005950 8 193 1.6 4.8 0.00 1.04 0.05 96 1007.7
20260507005448 8 193 1.6 4.8 0.00 1.04 0.05 96 1007.7
20260507004947 8 205 3.2 6.4 0.00 1.04 0.05 96 1007.5
20260507004446 8 205 3.2 6.4 0.00 1.04 0.05 96 1007.5
20260507003945 8 216 3.2 6.4 0.00 1.04 0.05 96 1007.5
20260507003444 8 216 3.2 6.4 0.00 1.04 0.05 96 1007.5
20260507002943 8 221 3.2 8.0 0.00 1.04 0.05 96 1007.5
20260507002443 8 221 3.2 8.0 0.00 1.04 0.05 96 1007.5
20260507001941 8 203 3.2 4.8 0.03 1.04 0.05 96 1007.4
20260507001440 8 203 3.2 4.8 0.03 1.04 0.05 96 1007.4
20260507000939 8 203 3.2 6.4 0.03 1.04 0.05 96 1007.5
20260507000438 8 203 3.2 6.4 0.03 1.04 0.05 96 1007.5
20260506235938 8 190 3.2 6.4 0.03 1.04 0.05 96 1007.5
20260506235436 8 190 3.2 6.4 0.03 1.04 0.05 96 1007.5
20260506234935 8 200 6.4 8.0 0.03 1.02 0.05 95 1007.5
20260506234434 8 200 6.4 8.0 0.03 1.02 0.05 95 1007.5
20260506233933 8 207 8.0 11.3 0.03 1.02 0.05 95 1007.5
20260506233432 8 207 8.0 11.3 0.03 1.02 0.05 95 1007.5
20260506232932 8 200 8.0 11.3 0.03 1.02 0.05 95 1007.5
20260506232431 8 200 8.0 11.3 0.05 1.02 0.05 95 1007.5
20260506231930 8 195 6.4 11.3 0.03 1.02 0.05 95 1007.5
20260506231428 8 195 6.4 11.3 0.03 1.02 0.05 95 1007.5
20260506230927 8 201 8.0 14.5 0.03 1.02 0.05 95 1007.5
20260506230426 8 201 8.0 14.5 0.05 1.02 0.05 95 1007.5
20260506225925 9 222 12.9 19.3 0.03 0.99 0.03 95 1007.6
20260506225425 9 222 12.9 19.3 0.03 0.99 0.03 95 1007.6
20260506224924 9 270 3.2 22.5 0.03 0.99 0.03 95 1007.6
20260506224423 9 270 3.2 22.5 0.05 0.99 0.03 95 1007.6
20260506223922 9 302 1.6 3.2 0.05 0.99 0.03 94 1007.6
20260506223421 9 106 1.6 4.8 0.05 0.99 0.03 94 1007.6
20260506222919 9 106 1.6 4.8 0.05 0.99 0.03 94 1007.6
20260506222418 9 67 3.2 6.4 0.05 0.99 0.00 94 1007.6
20260506221917 9 67 3.2 6.4 0.05 0.99 0.00 94 1007.6
20260506221417 9 75 3.2 6.4 0.05 0.99 0.00 94 1007.5
20260506220916 9 75 3.2 6.4 0.05 0.99 0.00 94 1007.5
20260506220415 9 90 1.6 6.4 0.05 0.97 0.00 94 1007.4
20260506215915 9 90 1.6 6.4 0.05 0.97 0.97 94 1007.4
20260506215413 9 135 3.2 9.7 0.05 0.97 0.97 94 1007.3
20260506214912 9 135 3.2 9.7 0.05 0.97 0.97 94 1007.3
20260506214411 9 159 1.6 6.4 0.05 0.97 0.97 94 1007.3
20260506213910 9 159 1.6 6.4 0.05 0.97 0.97 94 1007.3
20260506213410 9 174 1.6 6.4 0.03 0.94 0.94 94 1007.2
20260506212907 9 174 1.6 6.4 0.03 0.94 0.94 94 1007.2
20260506212406 10 180 1.6 4.8 0.03 0.94 0.94 94 1007.1
20260506211906 10 180 1.6 4.8 0.03 0.94 0.94 94 1007.1
20260506211405 10 180 1.6 6.4 0.03 0.94 0.94 94 1007.1
20260506210904 10 180 1.6 6.4 0.03 0.94 0.94 94 1007.1
20260506210402 10 186 1.6 3.2 0.03 0.94 0.94 93 1007.1
20260506205901 10 186 1.6 3.2 0.03 0.94 0.94 93 1007.1
20260506205400 10 177 1.6 4.8 0.00 0.94 0.91 93 1007.1
20260506204900 10 177 1.6 4.8 0.00 0.94 0.91 93 1007.1
20260506204359 10 173 1.6 4.8 0.00 0.91 0.91 93 1007.0
20260506203858 10 173 1.6 4.8 0.00 0.91 0.91 93 1007.0
20260506203357 10 163 1.6 3.2 0.00 0.91 0.91 94 1007.0
20260506202856 10 163 1.6 3.2 0.00 0.91 0.91 94 1007.0
20260506202354 10 183 1.6 4.8 0.00 0.91 0.91 94 1006.9
20260506201854 10 183 1.6 4.8 0.00 0.91 0.91 94 1006.9
20260506201353 10 183 1.6 4.8 0.00 0.91 0.91 94 1006.9
20260506200852 10 164 1.6 3.2 0.00 0.91 0.91 94 1006.8
20260506200351 10 164 1.6 3.2 0.00 0.91 0.91 94 1006.8
20260506195850 10 135 1.6 3.2 0.00 0.91 0.91 94 1006.7
20260506195350 10 135 1.6 3.2 0.00 0.91 0.91 94 1006.7
20260506194848 10 216 1.6 3.2 0.00 0.91 0.91 94 1006.5
20260506194348 10 216 1.6 3.2 0.00 0.91 0.91 94 1006.5
20260506193846 10 90 1.6 1.6 0.00 0.91 0.91 93 1006.4
20260506193345 10 90 1.6 1.6 0.00 0.91 0.91 93 1006.4
20260506192844 10 173 1.6 3.2 0.00 0.91 0.91 93 1006.3
20260506192343 10 173 1.6 3.2 0.00 0.91 0.91 93 1006.3
20260506191842 10 173 1.6 4.8 0.00 0.91 0.91 93 1006.2
20260506191340 10 173 1.6 4.8 0.00 0.91 0.91 93 1006.2
20260506190840 10 330 1.6 3.2 0.03 0.91 0.91 93 1006.0
20260506190338 10 330 1.6 3.2 0.03 0.91 0.91 93 1006.0
20260506185838 10 315 1.6 3.2 0.05 0.91 0.91 93 1005.9
20260506185337 10 315 1.6 3.2 0.05 0.91 0.91 93 1005.9
20260506184836 10 154 1.6 4.8 0.05 0.91 0.91 92 1005.8
20260506184334 10 154 1.6 4.8 0.05 0.91 0.91 92 1005.8
20260506183833 10 180 1.6 4.8 0.05 0.91 0.91 92 1005.6
20260506183332 10 180 1.6 4.8 0.05 0.91 0.91 92 1005.6
20260506182832 10 180 3.2 6.4 0.05 0.91 0.91 92 1005.7
20260506182331 10 180 3.2 6.4 0.05 0.94 0.91 92 1005.7
20260506181830 10 205 3.2 6.4 0.05 0.91 0.89 92 1005.6
20260506181329 10 205 3.2 6.4 0.05 0.94 0.89 92 1005.6
20260506180828 11 198 3.2 6.4 0.08 0.91 0.89 93 1005.6
20260506180327 11 198 3.2 6.4 0.08 0.94 0.89 93 1005.6
20260506175826 11 164 1.6 3.2 0.08 0.91 0.86 93 1005.4
20260506175324 11 164 1.6 3.2 0.08 0.91 0.86 93 1005.4
20260506174823 11 195 1.6 6.4 0.10 0.89 0.86 93 1005.3
20260506174322 11 195 1.6 6.4 0.10 0.91 0.86 93 1005.3
20260506173822 11 198 1.6 3.2 0.10 0.89 0.84 92 1005.3
20260506173320 11 198 1.6 3.2 0.10 0.94 0.84 92 1005.3
20260506172820 11 203 1.6 6.4 0.13 0.94 0.84 92 1005.3
20260506172318 11 203 1.6 6.4 0.13 0.94 0.84 92 1005.3
20260506171818 11 187 1.6 4.8 0.13 0.94 0.84 92 1005.2
20260506171317 11 187 1.6 4.8 0.13 0.94 0.84 92 1005.2
20260506170816 11 190 1.6 6.4 0.13 0.91 0.81 91 1005.2
20260506170314 11 190 1.6 6.4 0.13 0.97 0.81 91 1005.2
20260506165813 11 168 1.6 6.4 0.10 0.94 0.79 92 1005.2
20260506165312 11 168 1.6 6.4 0.10 0.97 0.79 92 1005.2
20260506164811 11 175 1.6 6.4 0.08 0.94 0.76 91 1005.3
20260506164310 11 175 1.6 6.4 0.08 0.94 0.76 91 1005.3
20260506163810 11 90 1.6 4.8 0.08 0.94 0.76 91 1005.1
20260506163309 11 90 1.6 4.8 0.08 0.94 0.76 91 1005.1
20260506162809 12 119 1.6 3.2 0.05 0.91 0.74 91 1005.0
20260506162407 12 119 1.6 3.2 0.05 0.91 0.74 91 1005.0
20260506161906 12 149 1.6 4.8 0.10 0.89 0.71 91 1004.9
20260506161304 12 149 1.6 4.8 0.10 0.89 0.71 91 1004.9
20260506160804 12 181 3.2 8.0 0.10 0.86 0.69 91 1004.8
20260506160302 12 181 3.2 8.0 0.10 0.86 0.69 91 1004.8
20260506155802 12 180 1.6 6.4 0.18 0.86 0.69 90 1004.7
20260506155301 12 180 1.6 6.4 0.18 0.86 0.69 90 1004.7
20260506154800 12 184 3.2 6.4 0.25 0.86 0.69 90 1004.6
20260506154258 12 184 3.2 6.4 0.25 0.86 0.69 90 1004.6
20260506153757 12 200 3.2 8.0 0.36 0.86 0.69 91 1004.6
20260506153256 12 200 3.2 8.0 0.36 0.86 0.69 91 1004.6
20260506152755 12 171 1.6 4.8 0.38 0.86 0.69 92 1004.6
20260506152254 12 171 1.6 4.8 0.38 0.86 0.69 92 1004.6
20260506151754 12 215 1.6 3.2 0.30 0.79 0.58 91 1004.5
20260506151253 12 215 1.6 3.2 0.30 0.79 0.58 91 1004.5
20260506150752 13 135 1.6 3.2 0.30 0.76 0.58 91 1004.5
20260506150251 13 135 1.6 3.2 0.30 0.76 0.58 91 1004.5
20260506145749 13 225 1.6 3.2 0.28 0.69 0.51 90 1004.4
20260506145248 13 225 1.6 3.2 0.28 0.69 0.51 90 1004.4
20260506144747 13 135 1.6 3.2 0.20 0.61 0.43 90 1004.3
20260506144247 13 135 1.6 3.2 0.20 0.61 0.43 90 1004.3
20260506143746 13 195 1.6 4.8 0.15 0.53 0.36 89 1004.3
20260506143245 13 195 1.6 4.8 0.15 0.53 0.36 89 1004.3
20260506142744 13 194 1.6 3.2 0.18 0.48 0.30 90 1004.2
20260506142242 13 194 1.6 3.2 0.18 0.48 0.30 90 1004.2
20260506141741 13 173 1.6 3.2 0.20 0.48 0.30 89 1004.1
20260506141240 13 173 1.6 3.2 0.20 0.48 0.30 89 1004.1
20260506140739 13 200 1.6 4.8 0.15 0.46 0.25 88 1004.1
20260506140238 13 200 1.6 4.8 0.15 0.46 0.25 88 1004.1
20260506135738 13 205 1.6 4.8 0.13 0.43 0.23 88 1004.1
20260506135236 13 205 1.6 4.8 0.13 0.43 0.23 88 1004.1
20260506134736 13 200 1.6 3.2 0.13 0.43 0.23 88 1004.0
20260506134235 13 200 1.6 3.2 0.13 0.43 0.23 88 1004.0
20260506133733 13 161 1.6 3.2 0.10 0.41 0.20 86 1003.9
20260506133233 13 161 1.6 3.2 0.10 0.41 0.20 86 1003.9
20260506132731 13 198 1.6 6.4 0.03 0.36 0.13 85 1003.8
20260506132232 13 198 1.6 6.4 0.03 0.36 0.13 85 1003.8
20260506131729 13 221 1.6 6.4 0.00 0.33 0.10 84 1003.7
20260506131229 13 221 1.6 6.4 0.00 0.33 0.10 84 1003.7
20260506130728 13 201 1.6 4.8 0.03 0.33 0.10 85 1003.4
20260506130227 13 201 1.6 4.8 0.03 0.33 0.10 85 1003.4
20260506125726 13 195 1.6 4.8 0.08 0.33 0.10 84 1003.3
20260506125224 13 195 1.6 4.8 0.08 0.33 0.10 84 1003.3
20260506124735 13 191 1.6 3.2 0.08 0.33 0.10 83 1003.2
20260506124223 13 191 1.6 3.2 0.10 0.36 0.10 83 1003.2
20260506123722 14 180 1.6 4.8 0.10 0.36 0.10 83 1003.3
20260506123222 14 180 1.6 4.8 0.10 0.38 0.10 83 1003.3
20260506122720 14 206 1.6 6.4 0.10 0.38 0.10 82 1003.3
20260506122218 14 206 1.6 6.4 0.10 0.41 0.10 82 1003.3
20260506121717 14 8 1.6 3.2 0.10 0.38 0.10 82 1003.2
20260506121217 14 8 1.6 3.2 0.10 0.41 0.10 82 1003.2
20260506120716 15 139 1.6 6.4 0.08 0.41 0.08 79 1003.3
20260506120215 15 139 1.6 6.4 0.08 0.48 0.08 79 1003.3
20260506115713 15 217 1.6 3.2 0.03 0.43 0.03 78 1003.4
20260506115214 15 217 1.6 3.2 0.03 0.51 0.03 78 1003.4
20260506114712 15 209 1.6 3.2 0.03 0.51 0.03 78 1003.3
20260506114211 16 198 1.6 4.8 0.00 0.53 0.00 76 1003.3
20260506113710 16 198 1.6 4.8 0.00 0.53 0.00 76 1003.3
20260506113209 16 90 1.6 3.2 0.00 0.53 0.00 72 1003.3
20260506112707 16 90 1.6 3.2 0.00 0.53 0.00 72 1003.3
20260506112207 16 45 1.6 3.2 0.00 0.51 0.00 72 1003.3
20260506111706 16 45 1.6 3.2 0.00 0.51 0.00 72 1003.3
20260506111205 17 50 1.6 3.2 0.00 0.51 0.00 70 1003.3
20260506110704 17 50 1.6 3.2 0.00 0.51 0.00 70 1003.3
20260506110202 17 38 1.6 4.8 0.00 0.51 0.00 69 1003.2
20260506105701 17 38 1.6 4.8 0.00 0.51 0.00 69 1003.2
20260506105201 17 336 3.2 14.5 0.00 0.51 0.00 67 1003.3
20260506104700 17 336 3.2 14.5 0.00 0.51 0.00 67 1003.3
20260506104159 17 322 1.6 8.0 0.00 0.51 0.00 67 1003.4
20260506103658 17 322 1.6 8.0 0.00 0.51 0.00 67 1003.4
20260506103156 17 320 1.6 8.0 0.00 0.51 0.00 67 1003.5
20260506102655 17 320 1.6 8.0 0.00 0.51 0.00 67 1003.5
20260506102156 17 22 1.6 6.4 0.00 0.51 0.00 72 1003.7
20260506101653 17 22 1.6 6.4 0.00 0.51 0.00 72 1003.7
20260506101152 17 352 1.6 6.4 0.00 0.51 0.00 72 1003.8
20260506100651 17 352 1.6 6.4 0.00 0.51 0.00 72 1003.8
20260506100151 17 61 1.6 3.2 0.00 0.51 0.00 75 1003.8
20260506095650 17 61 1.6 3.2 0.00 0.51 0.00 75 1003.8
20260506095148 16 338 1.6 6.4 0.00 0.51 0.00 76 1003.8
20260506094648 16 338 1.6 6.4 0.00 0.51 0.00 76 1003.8
20260506094147 16 308 3.2 9.7 0.00 0.51 0.00 75 1003.8
20260506093646 16 308 3.2 9.7 0.00 0.51 0.00 75 1003.8
20260506093145 16 90 1.6 4.8 0.00 0.51 0.00 77 1003.8
20260506092644 16 90 1.6 4.8 0.00 0.51 0.00 77 1003.8
20260506092143 16 57 1.6 3.2 0.00 0.51 0.00 79 1003.8
20260506091642 16 57 1.6 3.2 0.00 0.51 0.00 79 1003.8
20260506091141 16 336 1.6 4.8 0.00 0.51 0.00 77 1003.8
20260506090641 16 336 1.6 4.8 0.00 0.51 0.00 77 1003.8
20260506090139 16 8 1.6 6.4 0.00 0.51 0.00 80 1003.7
20260506085637 16 8 1.6 6.4 0.00 0.51 0.00 80 1003.7
20260506085136 16 12 1.6 6.4 0.00 0.51 0.00 82 1003.7
20260506084636 16 12 1.6 6.4 0.00 0.51 0.00 82 1003.7
20260506084135 15 90 1.6 3.2 0.00 0.51 0.00 85 1003.7
20260506083634 15 90 1.6 3.2 0.00 0.51 0.00 85 1003.7
20260506083133 15 311 1.6 6.4 0.00 0.51 0.00 87 1003.8
20260506082632 15 311 1.6 6.4 0.00 0.51 0.00 87 1003.8
20260506082131 14 345 1.6 6.4 0.00 0.51 0.00 91 1003.8
20260506081630 14 345 1.6 6.4 0.00 0.51 0.00 91 1003.8
20260506081139 13 349 3.2 6.4 0.00 0.51 0.00 92 1003.9
20260506080628 13 349 3.2 6.4 0.00 0.51 0.00 92 1003.9
20260506080127 13 344 1.6 4.8 0.00 0.51 0.00 92 1003.9
20260506073120 12 351 1.6 4.8 0.00 0.51 0.00 94 1003.8
20260506072620 12 351 1.6 4.8 0.00 0.51 0.00 94 1003.8
20260506072118 11 30 1.6 4.8 0.00 0.51 0.00 97 1003.8
20260506071618 11 30 1.6 4.8 0.00 0.51 0.00 97 1003.8
20260506071117 11 45 1.6 3.2 0.00 0.51 0.00 97 1003.8
20260506070616 11 45 1.6 3.2 0.00 0.51 0.00 97 1003.8
20260506070115 10 40 1.6 3.2 0.00 0.51 0.00 97 1003.8
20260506062107 8 36 1.6 3.2 0.00 0.51 0.00 97 1003.9
20260506061606 8 36 1.6 3.2 0.00 0.51 0.00 97 1003.9
20260506061104 8 16 1.6 3.2 0.00 0.51 0.00 97 1004.0
20260506060603 8 16 1.6 3.2 0.00 0.51 0.00 97 1004.0
20260506051053 7 24 1.6 6.4 0.00 0.51 0.00 97 1004.2
20260506050552 7 24 1.6 6.4 0.00 0.51 0.00 97 1004.2
20260506045049 7 45 1.6 3.2 0.00 0.51 0.00 97 1004.3
20260506044549 7 45 1.6 3.2 0.00 0.51 0.00 97 1004.3
20260506044047 7 36 1.6 3.2 0.00 0.51 0.00 96 1004.1
20260506043546 7 36 1.6 3.2 0.00 0.51 0.00 96 1004.1
20260506043044 7 45 1.6 4.8 0.00 0.51 0.00 96 1004.2
20260506042544 7 45 1.6 4.8 0.00 0.51 0.00 96 1004.2
20260506042043 7 45 1.6 4.8 0.00 0.51 0.00 96 1004.2
20260506041542 7 45 1.6 4.8 0.00 0.51 0.00 96 1004.2
20260506041041 7 33 1.6 3.2 0.00 0.51 0.00 96 1004.1
20260506040540 7 33 1.6 3.2 0.00 0.51 0.00 96 1004.1
20260506040039 7 45 1.6 3.2 0.00 0.51 0.00 96 1004.1
20260506035538 7 45 1.6 3.2 0.00 0.51 0.00 96 1004.1
20260506035037 7 12 1.6 4.8 0.00 0.51 0.00 96 1004.4
20260506034536 7 12 1.6 4.8 0.00 0.51 0.00 96 1004.4